DW2150 Weather Reports


time (UTC)temp
C
wind
direction
speed
KPH
gust
KPH
rain 1hr
cm
rain 24hr
cm
rain mn
cm
humidity
%
barometer
mb
20260903192755 32 65 3.2 12.9 0.00 0.00 0.00 79 1013.9
20260903192252 32 23 1.6 14.5 0.00 0.00 0.00 79 1013.9
20260903191733 33 44 3.2 16.1 0.00 0.00 0.00 77 1013.5
20260903191159 33 74 3.2 16.1 0.00 0.00 0.00 76 1013.2
20260903190656 33 50 3.2 16.1 0.00 0.00 0.00 75 1013.5
20260903190153 33 55 4.8 16.1 0.00 0.00 0.00 75 1013.5
20260903185631 33 22 3.2 14.5 0.00 0.00 0.00 75 1013.5
20260903185127 33 48 3.2 14.5 0.00 0.00 0.00 77 1013.5
20260903184625 33 58 4.8 12.9 0.00 0.00 0.00 76 1013.9
20260903184122 33 49 3.2 12.9 0.00 0.00 0.00 77 1013.9
20260903183618 33 32 3.2 12.9 0.00 0.00 0.00 78 1013.9
20260903183115 33 63 3.2 12.9 0.00 0.00 0.00 79 1013.9
20260903182612 32 71 4.8 12.9 0.00 0.00 0.00 79 1013.9
20260903182108 33 46 3.2 12.9 0.00 0.00 0.00 78 1013.9
20260903181547 33 31 4.8 11.3 0.00 0.00 0.00 79 1013.9
20260903181043 33 54 3.2 11.3 0.00 0.00 0.00 79 1013.9
20260903180540 33 26 3.2 11.3 0.00 0.00 0.00 78 1014.2
20260903180005 33 72 3.2 11.3 0.00 0.00 0.00 77 1014.6
20260903175502 33 81 1.6 9.7 0.00 0.00 0.00 78 1014.6
20260903174959 33 78 4.8 9.7 0.00 0.00 0.00 76 1014.6
20260903174456 33 74 1.6 4.8 0.00 0.00 0.00 73 1014.6
20260903173953 33 79 1.6 4.8 0.00 0.00 0.00 74 1014.6
20260903173451 33 91 0.0 4.8 0.00 0.00 0.00 74 1014.6
20260903172913 33 167 3.2 4.8 0.00 0.00 0.00 74 1014.6
20260903172314 34 330 1.6 4.8 0.00 0.00 0.00 74 1014.6
20260903171809 33 355 1.6 4.8 0.00 0.00 0.00 76 1014.9
20260903171247 33 15 1.6 4.8 0.00 0.00 0.00 77 1014.9
20260903170725 33 249 1.6 4.8 0.00 0.00 0.00 75 1014.9
20260903170221 32 243 1.6 4.8 0.00 0.00 0.00 78 1014.9
20260903165718 32 244 1.6 4.8 0.00 0.00 0.00 78 1014.9
20260903165215 32 239 1.6 4.8 0.00 0.00 0.00 80 1015.2
20260903164712 32 265 3.2 4.8 0.00 0.00 0.00 79 1014.9
20260903164138 32 20 1.6 9.7 0.00 0.00 0.00 81 1014.9
20260903163635 31 274 1.6 9.7 0.00 0.00 0.00 83 1014.9
20260903163133 31 274 0.0 9.7 0.00 0.00 0.00 84 1014.9
20260903162630 30 260 4.8 9.7 0.00 0.00 0.00 86 1014.9
20260903162056 30 260 1.6 3.2 0.00 0.00 0.00 87 1014.6
20260903161553 29 249 0.0 3.2 0.00 0.00 0.00 89 1014.6
20260903161019 28 65 0.0 3.2 0.00 0.00 0.00 89 1014.6
20260903160426 28 65 0.0 3.2 0.00 0.00 0.00 89 1014.6
20260903155852 28 65 1.6 1.6 0.00 0.00 0.00 90 1014.6
20260903155348 28 65 0.0 1.6 0.00 0.00 0.00 90 1014.9
20260903154844 28 65 0.0 1.6 0.00 0.00 0.00 90 1014.9
20260903154341 28 65 1.6 3.2 0.00 0.00 0.00 90 1014.9
20260903153800 27 65 0.0 3.2 0.00 0.00 0.00 91 1014.9
20260903153234 27 65 0.0 3.2 0.00 0.00 0.00 90 1014.9
20260903152729 27 59 1.6 1.6 0.00 0.00 0.00 90 1014.9
20260903152210 27 55 1.6 1.6 0.00 0.00 0.00 91 1014.9
20260903151706 27 53 0.0 1.6 0.00 0.00 0.00 91 1014.9
20260903151203 27 73 0.0 0.0 0.00 0.00 0.00 90 1014.9
20260903150628 27 80 0.0 0.0 0.00 0.00 0.00 90 1014.9
20260903150125 27 80 0.0 0.0 0.00 0.00 0.00 91 1014.6
20260903145557 27 80 0.0 0.0 0.00 0.00 0.00 90 1014.6
20260903145053 26 80 0.0 0.0 0.00 0.00 0.00 90 1014.6
20260903144550 26 80 0.0 0.0 0.00 0.00 0.00 90 1014.6
20260903144047 26 80 0.0 0.0 0.00 0.00 0.00 91 1014.9
20260903143543 26 80 0.0 0.0 0.00 0.00 0.00 91 1014.9
20260903143041 26 80 0.0 0.0 0.00 0.00 0.00 91 1014.6
20260903142538 26 80 0.0 0.0 0.00 0.00 0.00 91 1014.9
20260903141933 26 80 0.0 0.0 0.00 0.00 0.00 90 1014.9
20260903141429 26 80 0.0 0.0 0.00 0.00 0.00 90 1014.9
20260903140927 26 80 0.0 0.0 0.00 0.00 0.00 90 1014.9
20260903140424 26 80 0.0 0.0 0.00 0.00 0.00 90 1014.9
20260903135921 26 80 0.0 0.0 0.00 0.00 0.00 89 1014.9
20260903135418 26 80 0.0 0.0 0.00 0.00 0.00 89 1014.9
20260903134915 26 80 0.0 0.0 0.00 0.00 0.00 89 1014.9
20260903134412 26 80 0.0 0.0 0.00 0.00 0.00 89 1014.9
20260903133838 26 80 0.0 0.0 0.00 0.00 0.00 89 1014.9
20260903133335 26 80 0.0 0.0 0.00 0.00 0.00 89 1014.9
20260903132832 26 80 0.0 0.0 0.00 0.00 0.00 89 1014.9
20260903132329 26 80 0.0 0.0 0.00 0.00 0.00 89 1014.9
20260903131748 26 80 0.0 0.0 0.00 0.00 0.00 88 1014.9
20260903130649 26 80 0.0 0.0 0.00 0.00 0.00 88 1014.9
20260903130146 26 80 0.0 0.0 0.00 0.00 0.00 88 1014.9
20260903125644 26 80 0.0 0.0 0.00 0.00 0.00 88 1014.9
20260903125141 26 80 0.0 0.0 0.00 0.00 0.00 88 1014.6
20260903124638 26 80 0.0 0.0 0.00 0.00 0.00 89 1014.6
20260903124135 26 80 0.0 0.0 0.00 0.00 0.00 88 1014.6
20260903123632 26 80 0.0 0.0 0.00 0.00 0.00 88 1014.6
20260903123057 26 80 0.0 1.6 0.00 0.00 0.00 88 1014.6
20260903122554 27 80 0.0 1.6 0.00 0.00 0.00 89 1014.6
20260903122051 27 80 0.0 1.6 0.00 0.00 0.00 92 1014.6
20260903121548 27 80 1.6 1.6 0.00 0.00 0.00 92 1014.2
20260903121045 27 80 0.0 1.6 0.00 0.00 0.00 92 1013.9
20260903120522 27 80 0.0 1.6 0.00 0.00 0.00 92 1013.9
20260903115953 27 80 0.0 1.6 0.00 0.00 0.00 92 1013.9
20260903115349 27 80 0.0 0.0 0.00 0.00 0.00 92 1013.9
20260903114846 27 80 0.0 0.0 0.00 0.00 0.00 92 1013.9
20260903114323 27 80 0.0 1.6 0.00 0.00 0.00 92 1013.9
20260903113734 27 80 0.0 1.6 0.00 0.00 0.00 92 1013.9
20260903113231 27 80 0.0 1.6 0.00 0.00 0.00 92 1013.9
20260903112728 27 80 0.0 0.0 0.00 0.00 0.00 92 1013.9
20260903112226 27 80 0.0 0.0 0.00 0.00 0.00 92 1013.9
20260903111723 27 80 0.0 0.0 0.00 0.00 0.00 91 1013.9
20260903111220 27 80 0.0 0.0 0.00 0.00 0.00 91 1013.9
20260903110717 27 80 0.0 0.0 0.00 0.00 0.00 91 1013.9
20260903110120 27 80 0.0 0.0 0.00 0.00 0.00 91 1013.9
20260903105616 27 80 0.0 0.0 0.00 0.00 0.00 91 1013.9
20260903105043 27 80 0.0 0.0 0.00 0.00 0.00 91 1013.9
20260903104539 27 80 0.0 0.0 0.00 0.00 0.00 91 1013.9
20260903104035 27 80 0.0 0.0 0.00 0.00 0.00 91 1013.5
20260903103532 27 80 0.0 0.0 0.00 0.00 0.00 91 1013.5
20260903103028 27 80 0.0 0.0 0.00 0.00 0.00 91 1013.5
20260903102525 27 80 0.0 0.0 0.00 0.00 0.00 91 1013.5
20260903102022 27 80 0.0 0.0 0.00 0.00 0.00 91 1013.5
20260903101518 27 80 0.0 0.0 0.00 0.00 0.00 91 1013.5
20260903101015 27 80 0.0 0.0 0.00 0.00 0.00 91 1013.5
20260903100512 27 80 0.0 0.0 0.00 0.00 0.00 91 1013.5
20260903100010 27 80 0.0 0.0 0.00 0.00 0.00 91 1013.5
20260903095436 27 80 0.0 0.0 0.00 0.00 0.00 91 1013.5
20260903094933 27 80 0.0 0.0 0.00 0.00 0.00 91 1013.5
20260903094429 27 80 0.0 0.0 0.00 0.00 0.00 90 1013.5
20260903093926 27 80 0.0 0.0 0.00 0.00 0.00 90 1013.5
20260903093423 28 80 0.0 0.0 0.00 0.00 0.00 90 1013.5
20260903092902 28 80 0.0 0.0 0.00 0.00 0.00 90 1013.5
20260903092358 28 80 0.0 0.0 0.00 0.00 0.00 90 1013.5
20260903091855 28 80 0.0 0.0 0.00 0.00 0.00 90 1013.5
20260903091353 28 80 0.0 0.0 0.00 0.00 0.00 90 1013.5
20260903090759 28 80 0.0 0.0 0.00 0.00 0.00 90 1013.5
20260903090134 28 80 0.0 1.6 0.00 0.00 0.00 90 1013.5
20260903085544 28 80 0.0 1.6 0.00 0.00 0.00 90 1013.5
20260903085010 28 80 0.0 1.6 0.00 0.00 0.00 90 1013.5
20260903084449 28 80 1.6 1.6 0.00 0.00 0.00 90 1013.5
20260903083946 28 80 0.0 0.0 0.00 0.00 0.00 90 1013.5
20260903083444 28 80 0.0 0.0 0.00 0.00 0.00 90 1013.5
20260903082941 28 80 0.0 0.0 0.00 0.00 0.00 90 1013.5
20260903082438 28 80 0.0 1.6 0.00 0.00 0.00 90 1013.5
20260903081934 28 80 0.0 1.6 0.00 0.00 0.00 90 1013.5
20260903081432 28 80 0.0 1.6 0.00 0.00 0.00 90 1013.5
20260903080928 28 80 0.0 1.6 0.00 0.00 0.00 90 1013.5
20260903080353 28 91 0.0 1.6 0.00 0.00 0.00 90 1013.5
20260903075819 28 91 0.0 1.6 0.00 0.00 0.00 90 1013.2
20260903075316 28 91 0.0 1.6 0.00 0.00 0.00 90 1013.2
20260903074813 28 104 1.6 1.6 0.00 0.00 0.00 90 1013.2
20260903074309 28 162 1.6 1.6 0.00 0.00 0.00 90 1013.5
20260903073806 28 162 0.0 1.6 0.00 0.00 0.00 90 1013.2
20260903072624 28 162 0.0 0.0 0.00 0.00 0.00 90 1013.5
20260903072120 28 162 0.0 0.0 0.00 0.00 0.00 90 1013.5
20260903071617 28 162 0.0 0.0 0.00 0.00 0.00 90 1013.5
20260903071115 28 162 0.0 0.0 0.00 0.00 0.00 90 1013.5
20260903070556 28 162 0.0 0.0 0.00 0.00 0.00 90 1013.5
20260903070034 28 162 0.0 0.0 0.00 0.00 0.00 90 1013.5
20260903065532 28 162 0.0 0.0 0.00 0.00 0.00 90 1013.9
20260903065028 28 162 0.0 0.0 0.00 0.00 0.00 90 1013.9
20260903064525 28 162 0.0 0.0 0.00 0.00 0.00 90 1013.9
20260903064022 28 162 0.0 1.6 0.00 0.00 0.00 90 1013.9
20260903063520 28 162 0.0 1.6 0.00 0.00 0.00 90 1013.9
20260903063016 28 162 0.0 1.6 0.00 0.00 0.00 90 1013.9
20260903062459 28 162 0.0 1.6 0.00 0.00 0.00 90 1013.9
20260903061936 28 40 0.0 0.0 0.00 0.00 0.00 90 1014.2
20260903061402 28 40 0.0 0.0 0.00 0.00 0.00 90 1014.2
20260903060859 28 40 0.0 1.6 0.00 0.00 0.00 90 1014.2
20260903060338 28 40 0.0 1.6 0.00 0.00 0.00 89 1014.2
20260903055804 28 40 0.0 1.6 0.00 0.00 0.00 89 1014.2
20260903055301 28 40 0.0 1.6 0.00 0.00 0.00 89 1014.6
20260903054758 28 57 0.0 0.0 0.00 0.00 0.00 89 1014.6
20260903054255 28 57 0.0 0.0 0.00 0.00 0.00 89 1014.6
20260903053752 28 57 0.0 0.0 0.00 0.00 0.00 89 1014.6
20260903053248 28 57 0.0 0.0 0.00 0.00 0.00 89 1014.6
20260903052745 28 57 0.0 0.0 0.00 0.00 0.00 89 1014.6
20260903051703 28 57 0.0 0.0 0.00 0.00 0.00 89 1014.6
20260903051200 28 57 0.0 0.0 0.00 0.00 0.00 89 1014.6
20260903050657 28 57 0.0 0.0 0.00 0.00 0.00 88 1014.6
20260903050154 28 57 0.0 0.0 0.00 0.00 0.00 88 1014.6
20260903045609 28 57 0.0 0.0 0.00 0.00 0.00 88 1014.6
20260903045106 28 57 0.0 0.0 0.00 0.00 0.00 88 1014.6
20260903044603 28 57 0.0 0.0 0.00 0.00 0.00 88 1014.9
20260903044100 28 57 0.0 0.0 0.00 0.00 0.00 88 1014.9
20260903043557 28 57 0.0 0.0 0.00 0.00 0.00 88 1014.6
20260903043055 28 57 0.0 0.0 0.00 0.00 0.00 88 1014.6
20260903042552 28 57 0.0 0.0 0.00 0.00 0.00 88 1014.6
20260903042031 28 57 0.0 0.0 0.00 0.00 0.00 88 1014.6
20260903041434 28 33 0.0 0.0 0.00 0.00 0.00 88 1014.6
20260903040844 28 33 0.0 0.0 0.00 0.00 0.00 88 1014.6
20260903040326 28 33 0.0 0.0 0.00 0.00 0.00 88 1014.9
20260903035804 28 33 0.0 1.6 0.00 0.00 0.00 88 1014.9
20260903035301 28 33 0.0 1.6 0.00 0.00 0.00 88 1014.6
20260903034739 28 33 0.0 1.6 0.00 0.00 0.00 88 1014.2
20260903034204 28 33 1.6 1.6 0.00 0.00 0.00 88 1014.2
20260903033702 28 29 0.0 0.0 0.00 0.00 0.00 88 1014.6
20260903033127 28 29 0.0 1.6 0.00 0.00 0.00 88 1014.6
20260903032623 28 29 0.0 1.6 0.00 0.00 0.00 87 1014.6
20260903032121 28 29 0.0 1.6 0.00 0.00 0.00 87 1014.6
20260903031559 28 29 1.6 1.6 0.00 0.00 0.00 87 1014.6
20260903031056 28 30 0.0 1.6 0.00 0.00 0.00 87 1014.2
20260903030537 28 30 0.0 1.6 0.00 0.00 0.00 87 1014.2
20260903030034 28 30 0.0 1.6 0.00 0.00 0.00 87 1014.2
20260903025501 28 30 0.0 1.6 0.00 0.00 0.00 87 1013.9
20260903024958 29 27 0.0 1.6 0.00 0.00 0.00 87 1013.9
20260903024454 29 27 0.0 1.6 0.00 0.00 0.00 87 1013.9
20260903023951 29 355 1.6 1.6 0.00 0.00 0.00 88 1013.9
20260903023447 29 355 1.6 1.6 0.00 0.00 0.00 88 1013.9
20260903022913 29 355 0.0 3.2 0.00 0.00 0.00 88 1013.9
20260903022410 29 355 0.0 3.2 0.00 0.00 0.00 87 1013.5
20260903021907 29 355 0.0 3.2 0.00 0.00 0.00 87 1013.5
20260903021346 29 8 1.6 3.2 0.00 0.00 0.00 87 1013.5
20260903020758 29 214 0.0 1.6 0.00 0.00 0.00 87 1013.5
20260903020217 29 214 0.0 1.6 0.00 0.00 0.00 87 1013.5
20260903015714 29 214 0.0 1.6 0.00 0.00 0.00 87 1013.5
20260903015138 29 189 0.0 0.0 0.00 0.00 0.00 87 1013.5
20260903014636 29 189 0.0 0.0 0.00 0.00 0.00 87 1013.5
20260903014133 29 189 0.0 1.6 0.00 0.00 0.00 87 1013.5
20260903013630 29 189 0.0 1.6 0.00 0.00 0.00 87 1013.5
20260903013127 29 189 0.0 3.2 0.00 0.00 0.00 87 1013.5
20260903012624 30 189 1.6 3.2 0.00 0.00 0.00 87 1013.5
20260903012121 30 189 0.0 4.8 0.00 0.00 0.00 87 1013.5
20260903011618 30 189 1.6 4.8 0.00 0.00 0.00 86 1013.2
20260903011039 30 144 3.2 4.8 0.00 0.00 0.00 86 1013.2
20260903010536 30 89 1.6 4.8 0.00 0.00 0.00 86 1013.2
20260903010014 30 244 0.0 3.2 0.00 0.00 0.00 86 1013.2
20260903005440 30 244 1.6 3.2 0.00 0.00 0.00 85 1013.2
20260903004905 30 244 0.0 3.2 0.00 0.00 0.00 85 1013.2
20260903004403 30 244 0.0 3.2 0.00 0.00 0.00 85 1013.2
20260903003859 30 144 1.6 1.6 0.00 0.00 0.00 84 1013.2
20260903003325 30 144 0.0 3.2 0.00 0.00 0.00 84 1013.2
20260903002821 30 144 0.0 3.2 0.00 0.00 0.00 84 1012.9
20260903002318 30 144 1.6 3.2 0.00 0.00 0.00 83 1012.9
20260903001815 30 144 1.6 3.2 0.00 0.00 0.00 83 1012.5
20260903001241 31 19 1.6 4.8 0.00 0.00 0.00 83 1012.5
20260903000722 31 23 1.6 4.8 0.00 0.00 0.00 82 1012.5
20260903000219 31 67 1.6 4.8 0.00 0.00 0.00 82 1012.5
20260902235657 31 110 1.6 4.8 0.00 0.00 0.00 81 1012.5
20260902235132 31 155 1.6 3.2 0.00 0.00 0.00 81 1012.5
20260902234558 31 155 1.6 4.8 0.00 0.00 0.00 80 1012.5
20260902234053 31 179 1.6 4.8 0.00 0.00 0.00 80 1012.9
20260902233500 31 179 1.6 4.8 0.00 0.00 0.00 79 1012.5
20260902232923 31 56 1.6 4.8 0.00 0.00 0.00 79 1012.5
20260902232421 32 88 1.6 4.8 0.00 0.00 0.00 78 1012.5
20260902231859 32 183 3.2 4.8 0.00 0.00 0.00 77 1012.5
20260902231355 32 86 1.6 4.8 0.00 0.00 0.00 76 1012.5
20260902230852 32 186 1.6 4.8 0.00 0.00 0.00 76 1012.5
20260902230330 32 115 1.6 4.8 0.00 0.00 0.00 76 1012.5
20260902225750 32 112 1.6 4.8 0.00 0.00 0.00 75 1012.5
20260902225113 32 222 1.6 4.8 0.00 0.00 0.00 76 1012.5
20260902224533 32 227 1.6 4.8 0.00 0.00 0.00 76 1012.5
20260902224030 33 204 1.6 4.8 0.00 0.00 0.00 75 1012.5
20260902223507 33 168 1.6 4.8 0.00 0.00 0.00 74 1012.5
20260902222957 33 128 3.2 4.8 0.00 0.00 0.00 74 1012.5
20260902222454 33 113 1.6 3.2 0.00 0.00 0.00 73 1012.5
20260902221920 33 113 1.6 4.8 0.00 0.00 0.00 73 1012.5
20260902221358 33 33 1.6 4.8 0.00 0.00 0.00 74 1012.5
20260902220855 33 167 1.6 4.8 0.00 0.00 0.00 74 1012.5
20260902220352 33 180 1.6 4.8 0.00 0.00 0.00 74 1012.5
20260902215849 33 152 1.6 4.8 0.00 0.00 0.00 74 1012.5
20260902215346 33 140 1.6 4.8 0.00 0.00 0.00 75 1012.5
20260902214843 33 153 1.6 6.4 0.00 0.00 0.00 75 1012.5
20260902214340 33 132 1.6 6.4 0.00 0.00 0.00 76 1012.5
20260902213837 33 140 1.6 6.4 0.00 0.00 0.00 75 1012.5
20260902213334 33 119 1.6 6.4 0.00 0.00 0.00 75 1012.5
20260902212831 33 301 1.6 4.8 0.00 0.00 0.00 76 1012.5
20260902212327 33 300 1.6 4.8 0.00 0.00 0.00 76 1012.5
20260902211825 33 257 1.6 6.4 0.00 0.00 0.00 76 1012.5
20260902211322 33 169 1.6 6.4 0.00 0.00 0.00 75 1012.9
20260902210800 33 219 1.6 6.4 0.00 0.00 0.00 75 1012.9
20260902210219 33 191 1.6 6.4 0.00 0.00 0.00 75 1012.9
20260902205716 33 189 1.6 6.4 0.00 0.00 0.00 74 1012.9
20260902205213 34 119 3.2 6.4 0.00 0.00 0.00 74 1012.9
20260902204710 34 168 1.6 4.8 0.00 0.00 0.00 74 1012.9
20260902204207 35 291 3.2 6.4 0.00 0.00 0.00 73 1012.9
20260902203704 35 169 1.6 6.4 0.00 0.00 0.00 73 1012.9
20260902203201 35 161 3.2 6.4 0.00 0.00 0.00 73 1012.9
20260902202658 35 40 1.6 4.8 0.00 0.00 0.00 72 1012.9
20260902202136 36 358 3.2 4.8 0.00 0.00 0.00 70 1012.9
20260902201633 36 319 0.0 8.0 0.00 0.00 0.00 68 1013.2
20260902201130 35 314 1.6 8.0 0.00 0.00 0.00 66 1013.2
20260902200627 35 279 1.6 8.0 0.00 0.00 0.00 69 1013.2
20260902200124 35 273 3.2 8.0 0.00 0.00 0.00 71 1013.5
20260902195621 35 296 1.6 6.4 0.00 0.00 0.00 71 1013.5
20260902195118 35 279 1.6 3.2 0.00 0.00 0.00 72 1013.5
20260902194615 35 258 1.6 3.2 0.00 0.00 0.00 72 1013.5
20260902194111 35 254 1.6 4.8 0.00 0.00 0.00 72 1013.5
20260902193538 35 254 1.6 4.8 0.00 0.00 0.00 71 1013.5
20260902193035 35 254 1.6 6.4 0.00 0.00 0.00 71 1013.9